Hourly Weather Bridgetown

Today, 9 July, Thursday

Time Temperature Precipitation Wind Pressure Humidity
00:00 +29°C° 0.1 mm 8 mps 760 mmHg 73%
01:00 +29°C° 0.1 mm 8 mps 759 mmHg 72%
02:00 +29°C° 0.1 mm 8 mps 759 mmHg 71%
03:00 +29°C° 0.1 mm 8 mps 759 mmHg 71%
04:00 +29°C° 0.1 mm 8 mps 759 mmHg 72%
05:00 +29°C° 0.1 mm 7 mps 759 mmHg 72%
06:00 +29°C° 0.2 mm 8 mps 760 mmHg 74%
07:00 +29°C° 0.2 mm 8 mps 760 mmHg 76%
08:00 +29°C° 0.2 mm 8 mps 760 mmHg 77%
09:00 +31°C° 0.1 mm 8 mps 761 mmHg 73%
10:00 +31°C° 0.1 mm 8 mps 761 mmHg 69%
11:00 +32°C° 0.1 mm 8 mps 761 mmHg 65%
12:00 +32°C° 0.1 mm 8 mps 761 mmHg 66%
13:00 +32°C° 0.1 mm 8 mps 760 mmHg 68%
14:00 +32°C° 0.1 mm 8 mps 760 mmHg 69%
15:00 +32°C° 0 mm 8 mps 760 mmHg 69%
16:00 +31°C° 0 mm 8 mps 759 mmHg 70%
17:00 +30°C° 0 mm 7 mps 759 mmHg 70%
18:00 +31°C° 0 mm 8 mps 759 mmHg 71%
19:00 +31°C° 0 mm 8 mps 760 mmHg 72%
20:00 +29°C° 0 mm 8 mps 760 mmHg 73%
21:00 +29°C° 0 mm 8 mps 760 mmHg 74%
22:00 +29°C° 0 mm 8 mps 761 mmHg 76%
23:00 +29°C° 0 mm 8 mps 761 mmHg 77%

Tomorrow, 10 July, Friday

Time Temperature Precipitation Wind Pressure Humidity
00:00 +29°C° 0.1 mm 8 mps 760 mmHg 77%
01:00 +29°C° 0.1 mm 8 mps 760 mmHg 78%
02:00 +29°C° 0.1 mm 8 mps 760 mmHg 78%
03:00 +29°C° 0.1 mm 8 mps 760 mmHg 78%
04:00 +29°C° 0.1 mm 8 mps 760 mmHg 77%
05:00 +29°C° 0.1 mm 8 mps 760 mmHg 76%
06:00 +29°C° 0.1 mm 8 mps 760 mmHg 76%
07:00 +29°C° 0.1 mm 9 mps 761 mmHg 76%
08:00 +31°C° 0.1 mm 9 mps 761 mmHg 75%
09:00 +31°C° 0.2 mm 9 mps 761 mmHg 73%
10:00 +31°C° 0.2 mm 9 mps 761 mmHg 71%
11:00 +32°C° 0.2 mm 9 mps 761 mmHg 69%
12:00 +32°C° 0 mm 9 mps 761 mmHg 70%
13:00 +32°C° 0 mm 9 mps 760 mmHg 70%
14:00 +32°C° 0 mm 8 mps 760 mmHg 70%
15:00 +31°C° 0 mm 8 mps 759 mmHg 71%
16:00 +31°C° 0 mm 9 mps 759 mmHg 72%
17:00 +31°C° 0 mm 9 mps 759 mmHg 73%
18:00 +31°C° 0 mm 9 mps 759 mmHg 74%
19:00 +31°C° 0 mm 8 mps 760 mmHg 75%
20:00 +29°C° 0 mm 8 mps 760 mmHg 75%
21:00 +29°C° 0 mm 8 mps 760 mmHg 76%
22:00 +29°C° 0 mm 8 mps 760 mmHg 76%
23:00 +29°C° 0 mm 8 mps 761 mmHg 77%

Day after tomorrow, 11 July, Saturday

Time Temperature Precipitation Wind Pressure Humidity
00:00 +29°C° 0.1 mm 8 mps 760 mmHg 77%
01:00 +29°C° 0.1 mm 7 mps 759 mmHg 78%
02:00 +29°C° 0.1 mm 7 mps 759 mmHg 79%
03:00 +29°C° 0.4 mm 7 mps 759 mmHg 79%
04:00 +29°C° 0.4 mm 8 mps 759 mmHg 79%
05:00 +29°C° 0.4 mm 8 mps 759 mmHg 80%
06:00 +29°C° 0.1 mm 8 mps 759 mmHg 77%
07:00 +29°C° 0.1 mm 8 mps 759 mmHg 74%
08:00 +31°C° 0.1 mm 8 mps 760 mmHg 72%
09:00 +30°C° 0 mm 7 mps 760 mmHg 71%
10:00 +32°C° 0 mm 7 mps 760 mmHg 70%
11:00 +32°C° 0 mm 6 mps 761 mmHg 69%
12:00 +32°C° 0 mm 6 mps 760 mmHg 70%
13:00 +32°C° 0 mm 6 mps 760 mmHg 70%
14:00 +32°C° 0 mm 7 mps 759 mmHg 70%
15:00 +32°C° 0 mm 7 mps 759 mmHg 71%
16:00 +32°C° 0 mm 7 mps 759 mmHg 73%
17:00 +30°C° 0 mm 7 mps 758 mmHg 75%
18:00 +30°C° 0 mm 7 mps 759 mmHg 76%
19:00 +30°C° 0 mm 7 mps 759 mmHg 78%
20:00 +30°C° 0 mm 7 mps 759 mmHg 79%
21:00 +29°C° 0 mm 7 mps 760 mmHg 79%
22:00 +29°C° 0 mm 7 mps 760 mmHg 80%
23:00 +29°C° 0 mm 7 mps 760 mmHg 80%

12 July, Sunday

Time Temperature Precipitation Wind Pressure Humidity
00:00 +29°C° 0 mm 7 mps 760 mmHg 81%
01:00 +29°C° 0 mm 7 mps 759 mmHg 81%
02:00 +29°C° 0 mm 7 mps 759 mmHg 81%
03:00 +29°C° 0 mm 7 mps 759 mmHg 81%
04:00 +29°C° 0 mm 7 mps 759 mmHg 81%
05:00 +29°C° 0 mm 7 mps 759 mmHg 81%
06:00 +31°C° 0.1 mm 8 mps 759 mmHg 78%
07:00 +31°C° 0.1 mm 8 mps 760 mmHg 75%
08:00 +32°C° 0.1 mm 9 mps 760 mmHg 73%
09:00 +32°C° 0 mm 8 mps 760 mmHg 70%
10:00 +33°C° 0 mm 8 mps 760 mmHg 68%
11:00 +33°C° 0 mm 7 mps 761 mmHg 65%
12:00 +33°C° 0 mm 7 mps 760 mmHg 68%
13:00 +33°C° 0 mm 7 mps 760 mmHg 70%
14:00 +32°C° 0 mm 7 mps 760 mmHg 72%
15:00 +32°C° 0.2 mm 7 mps 759 mmHg 72%
16:00 +32°C° 0.2 mm 8 mps 759 mmHg 73%
17:00 +31°C° 0.2 mm 8 mps 759 mmHg 73%
18:00 +31°C° 0 mm 8 mps 759 mmHg 76%
19:00 +30°C° 0 mm 7 mps 760 mmHg 78%
20:00 +29°C° 0 mm 6 mps 760 mmHg 81%
21:00 +29°C° 0.2 mm 7 mps 760 mmHg 80%
22:00 +29°C° 0.2 mm 8 mps 761 mmHg 78%
23:00 +29°C° 0.2 mm 8 mps 761 mmHg 77%

13 July, Monday

Time Temperature Precipitation Wind Pressure Humidity
00:00 +29°C° 0 mm 8 mps 760 mmHg 77%
01:00 +29°C° 0 mm 7 mps 760 mmHg 77%
02:00 +29°C° 0 mm 7 mps 759 mmHg 77%
03:00 +29°C° 0 mm 7 mps 759 mmHg 75%
04:00 +29°C° 0 mm 7 mps 760 mmHg 73%
05:00 +29°C° 0 mm 8 mps 760 mmHg 72%
06:00 +31°C° 0 mm 8 mps 760 mmHg 71%
07:00 +31°C° 0 mm 8 mps 760 mmHg 70%
08:00 +31°C° 0 mm 8 mps 761 mmHg 69%
09:00 +31°C° 0 mm 8 mps 761 mmHg 70%
10:00 +32°C° 0 mm 8 mps 761 mmHg 71%
11:00 +32°C° 0 mm 8 mps 761 mmHg 72%
12:00 +32°C° 0 mm 8 mps 761 mmHg 71%
13:00 +32°C° 0 mm 8 mps 760 mmHg 71%
14:00 +32°C° 0 mm 8 mps 760 mmHg 70%
15:00 +32°C° 0 mm 8 mps 760 mmHg 71%
16:00 +32°C° 0 mm 8 mps 760 mmHg 71%
17:00 +31°C° 0 mm 8 mps 759 mmHg 72%
18:00 +30°C° 0 mm 7 mps 760 mmHg 73%
19:00 +30°C° 0 mm 7 mps 760 mmHg 74%
20:00 +29°C° 0 mm 7 mps 760 mmHg 74%
21:00 +29°C° 0 mm 7 mps 760 mmHg 75%
22:00 +29°C° 0 mm 7 mps 761 mmHg 76%
23:00 +29°C° 0 mm 7 mps 761 mmHg 76%

14 July, Tuesday

Time Temperature Precipitation Wind Pressure Humidity
00:00 +29°C° 0.1 mm 7 mps 760 mmHg 77%
01:00 +29°C° 0.1 mm 6 mps 760 mmHg 77%
02:00 +29°C° 0.1 mm 6 mps 759 mmHg 78%
03:00 +29°C° 0.1 mm 6 mps 759 mmHg 77%
04:00 +29°C° 0.1 mm 5 mps 759 mmHg 77%
05:00 +29°C° 0.1 mm 5 mps 759 mmHg 76%
06:00 +29°C° 0.1 mm 5 mps 760 mmHg 75%
07:00 +29°C° 0.1 mm 5 mps 760 mmHg 75%
08:00 +30°C° 0.1 mm 6 mps 760 mmHg 74%
09:00 +30°C° 0 mm 6 mps 760 mmHg 71%
10:00 +32°C° 0 mm 5 mps 761 mmHg 69%
11:00 +32°C° 0 mm 5 mps 761 mmHg 66%
12:00 +32°C° 0.1 mm 5 mps 760 mmHg 66%
13:00 +32°C° 0.1 mm 5 mps 760 mmHg 66%
14:00 +32°C° 0.1 mm 5 mps 760 mmHg 67%
15:00 +32°C° 0.2 mm 5 mps 759 mmHg 68%
16:00 +32°C° 0.2 mm 6 mps 759 mmHg 70%
17:00 +30°C° 0.2 mm 6 mps 759 mmHg 72%
18:00 +30°C° 0.1 mm 6 mps 759 mmHg 73%
19:00 +30°C° 0.1 mm 6 mps 759 mmHg 74%
20:00 +29°C° 0.1 mm 6 mps 760 mmHg 75%
21:00 +29°C° 0 mm 6 mps 760 mmHg 76%
22:00 +29°C° 0 mm 6 mps 760 mmHg 77%
23:00 +29°C° 0 mm 6 mps 760 mmHg 78%
Show more